(674) Rachele
ephemeris date magn radius delta ra dec elong phase
Opposition29 May 202612.13.376 AU2.364 AU16h24m-25°10'176.4°1.1°
Today12 Jun 202612.43.389 AU2.400 AU16h12m-25°16'164.5°4.6°
(674) Rachele - 2026-06-12
astro.vanbuitenen.nl


 
-1 year
-1 month
-1 day
Now
+1 day
+1 month
+1 year

The interactive orbit chart above shows the body's path through the solar system and its position at the given date. Green and blue lines are shown perpendicular to the ecliptic plane: Green if the path is above the ecliptic plane, blue if it is below. (Left-click and drag to rotate the view; Right-click and drag to move the view; Use scroll wheel to zoom in our out.)

The orbital elements of Rachele are:

            e (Eccentricity)                : 0.1929391
            a (Semimajor axis)              : 2.9246911
            i (Inclination)                 : 13.51152
            Ω (Longitude of ascending node) : 58.07000
            ω (Argument of perihelion)      : 41.20062
            M (Mean anomaly)                : 138.52266
            Epoch                           : 2026 Jun 09

            L (Longitude of perihelion)     : 98.47519
            B (Latitude of perihelion)      : 8.85293
            P (Orbital period in years)     : 5.00            
        

The light curve chart below shows the estimated development of the minor planet's magnitude.


The all-sky chart below shows the path of the minor planet over the same period as the light curve. The current position is marked yellow.





The following chart shows the path of the minor planet in the next few days. The field of view is optimized for (~10x50) binoculars and finderscopes.




Ephemerides:
Date       Time       RA (2000)    DEC (2000)    delta   radius  elong  phase   PA    magn
2026-06-12 00:00 UT   16 12 14.4   -25 16 54     2.400    3.389  164.5    4.6    85   12.4 
2026-06-12 03:31 UT   16 12 06.8   -25 16 56     2.400    3.389  164.4    4.6    86   12.4 
2026-06-13 00:00 UT   16 11 22.6   -25 17 09     2.404    3.390  163.4    4.9    86   12.4 
2026-06-14 00:00 UT   16 10 31.4   -25 17 22     2.409    3.391  162.3    5.2    87   12.4 
2026-06-15 00:00 UT   16 09 41.0   -25 17 34     2.415    3.392  161.2    5.5    88   12.4 
2026-06-16 00:00 UT   16 08 51.4   -25 17 44     2.420    3.393  160.0    5.9    89   12.5 
2026-06-17 00:00 UT   16 08 02.6   -25 17 54     2.426    3.394  158.9    6.2    90   12.5 
2026-06-18 00:00 UT   16 07 14.7   -25 18 02     2.432    3.395  157.8    6.5    90   12.5 
2026-06-19 00:00 UT   16 06 27.7   -25 18 09     2.439    3.396  156.7    6.8    91   12.5 
2026-06-20 00:00 UT   16 05 41.7   -25 18 16     2.445    3.397  155.6    7.1    91   12.5 
2026-06-21 00:00 UT   16 04 56.6   -25 18 21     2.452    3.398  154.5    7.4    92   12.6 
2026-06-22 00:00 UT   16 04 12.6   -25 18 27     2.459    3.398  153.4    7.7    92   12.6 
2026-06-23 00:00 UT   16 03 29.6   -25 18 31     2.467    3.399  152.3    8.0    93   12.6 
2026-06-24 00:00 UT   16 02 47.6   -25 18 36     2.474    3.400  151.2    8.3    93   12.6 
2026-06-25 00:00 UT   16 02 06.7   -25 18 40     2.482    3.401  150.1    8.6    93   12.6 
2026-06-26 00:00 UT   16 01 27.0   -25 18 45     2.490    3.402  149.0    8.9    94   12.7 
2026-06-27 00:00 UT   16 00 48.4   -25 18 49     2.499    3.403  147.9    9.1    94   12.7 
2026-06-28 00:00 UT   16 00 10.9   -25 18 54     2.507    3.404  146.8    9.4    94   12.7 
2026-06-29 00:00 UT   15 59 34.6   -25 18 59     2.516    3.405  145.7    9.7    95   12.7 
2026-06-30 00:00 UT   15 58 59.5   -25 19 05     2.525    3.406  144.7    9.9    95   12.7 
2026-07-01 00:00 UT   15 58 25.7   -25 19 11     2.534    3.406  143.6   10.2    95   12.8 
2026-07-02 00:00 UT   15 57 53.0   -25 19 18     2.544    3.407  142.5   10.5    95   12.8 
2026-07-03 00:00 UT   15 57 21.6   -25 19 25     2.554    3.408  141.5   10.7    96   12.8 
2026-07-04 00:00 UT   15 56 51.5   -25 19 34     2.564    3.409  140.4   11.0    96   12.8 
2026-07-05 00:00 UT   15 56 22.6   -25 19 43     2.574    3.410  139.3   11.2    96   12.8 
2026-07-06 00:00 UT   15 55 55.0   -25 19 54     2.584    3.411  138.3   11.4    96   12.8 
2026-07-07 00:00 UT   15 55 28.7   -25 20 06     2.594    3.412  137.3   11.7    97   12.9 
2026-07-08 00:00 UT   15 55 03.7   -25 20 19     2.605    3.412  136.2   11.9    97   12.9 
2026-07-09 00:00 UT   15 54 40.0   -25 20 34     2.616    3.413  135.2   12.1    97   12.9 
2026-07-10 00:00 UT   15 54 17.6   -25 20 50     2.627    3.414  134.1   12.3    97   12.9 
2026-07-11 00:00 UT   15 53 56.5   -25 21 08     2.638    3.415  133.1   12.5    97   12.9 
2026-07-12 00:00 UT   15 53 36.8   -25 21 27     2.650    3.416  132.1   12.8    98   13.0 


    Terminology:
            
    delta:  distance between minor planet and earth in AU
    radius: distance between minor planet and sun in AU
    magn:   magnitude (brightness) estimate    
    ra:     right ascension in hours (24h = 360deg)
    dec:    declination in degrees
    elong:  elongation in degrees (angle sun-earth-minor planet)    
    phase:  phase angle in degrees (angle sun-minor planet-earth)        
    AU:     Astronomical Unit (mean distance between earth and sun: 149597870.7 km
    

Orbital elements provided by the MPC (Minor Planet Center).
Calculations by a modified version of AAPlus, a C# implementation of the AA+ project by PJ Naughter from the algorithms presented in the book "Astronomical Algorithms" by Jean Meeus.
NGC2000 dso catalog and star labels from VizieR as provided by the Strasbourg astronomical Data Center.
Tycho2 catalog from the ESO archive.